This is the latest recevied weather packets stored in our database for station/object K4AXV-13. If no packets are shown the sender has not sent any weather packets the latest 10 day(s).
| Time | Temp. | Humidity | Pressure | Rain* | Wind** | Luminosity | Snow |
|---|---|---|---|---|---|---|---|
| 1778130459 | 22.78° C | - | - | 0 mm | 1.34 m/s, 338° | - | - |
| 1778130258 | 22.78° C | - | - | 0 mm | 0.89 m/s, 288° | - | - |
| 1778130160 | 22.78° C | - | - | 0 mm | 0.89 m/s, 288° | - | - |
| 1778130007 | 22.78° C | - | - | 0 mm | 0.89 m/s, 357° | - | - |
| 1778129939 | 22.78° C | - | - | 0 mm | 0.89 m/s, 357° | - | - |
| 1778129685 | 22.78° C | - | - | 0 mm | 0.89 m/s, 357° | - | - |
| 1778129560 | 22.78° C | - | - | 0 mm | 0.89 m/s, 357° | - | - |
| 1778128959 | 22.78° C | - | - | 0 mm | 0.45 m/s, 235° | - | - |
| 1778128657 | 22.78° C | - | - | 0 mm | 1.34 m/s, 354° | - | - |
| 1778128358 | 22.78° C | - | - | 0 mm | 0.45 m/s, 17° | - | - |
| 1778128057 | 22.78° C | - | - | 0 mm | 1.34 m/s, 281° | - | - |
| 1778126856 | 22.78° C | - | - | 0 mm | 1.34 m/s, 297° | - | - |
| 1778126745 | 22.22° C | - | - | 0 mm | 0.45 m/s, 305° | - | - |
| 1778126557 | 22.22° C | - | - | 0 mm | 0.45 m/s, 305° | - | - |
| 1778126255 | 22.78° C | - | - | 0 mm | 1.34 m/s, 219° | - | - |
| 1778125956 | 22.78° C | - | - | 0 mm | 2.24 m/s, 18° | - | - |
| 1778125830 | 22.78° C | - | - | 0 mm | 1.79 m/s, 17° | - | - |
| 1778125652 | 22.78° C | - | - | 0 mm | 1.79 m/s, 17° | - | - |
| 1778125353 | 22.78° C | - | - | 0 mm | 0.89 m/s, 253° | - | - |
| 1778124753 | 22.22° C | - | - | 0 mm | 2.24 m/s, 236° | - | - |
| 1778124451 | 22.78° C | - | - | 0 mm | 1.79 m/s, 0° | - | - |
| 1778123850 | 22.22° C | - | - | 0 mm | 1.79 m/s, 260° | - | - |
| 1778123551 | 22.22° C | - | - | 0 mm | 1.34 m/s, 322° | - | - |
| 1778123248 | 22.22° C | - | - | 0 mm | 1.34 m/s, 238° | - | - |
| 1778122949 | 22.22° C | - | - | 0 mm | 0 m/s | - | - |
* Rain latest hour (hover to see other rain measurements)
** Current wind speed in m/s (hover to see current wind gust speed)